Terug naar catalogus

STARLINK-35548

ActiefCommunicatieVLEO
NORAD 66203·PAYLOAD·🇺🇸 United States

Gelanceerd Oct 26, 2025 vanaf Cape Canaveral Space Force Station

Loading…

Volgende Passages (komende 24 uur)

TLE

VersSource: CelesTrak SupGP

Epoch: Sep 14, 2026, 21:20 UTC

1 66203C 25243AC  26257.88937500 -.00013637  00000+0 -40298-3 0  2579
2 66203  53.1592  85.6611 0001309  84.4315 219.1468 15.34391661    10

Volg STARLINK-35548 in realtime met AllMySat

Download on the App Store